Temperature
11 11 11 11 11 11 11 11 11 11 11 11 11 11 10 10 10 10 10 11 10 10 10 10 10 10 9 9 9 9 9 9 9 9 9 9 9 9 9 9 9 9 9
10 10 10 10 11 11 11 11 11 11 10 10 10 10 10 10 10 10 10 10 10 10 10 9 9 9 9 9 9 9 9 9 9 9 9 9 9 9 9 9 8 8 8
10 10 10 10 10 10 10 10 10 10 10 10 10 10 10 10 10 10 10 10 9 9 9 9 9 9 9 8 8 9 9 9 9 9 9 9 8 8 8 8 8 8 8
9 9 10 10 10 10 10 10 9 9 9 9 9 9 9 9 9 9 9 9 9 9 9 9 9 8 8 8 8 8 8 8 8 8 8 8 8 8 8 8 8 8 7
9 9 9 9 9 9 9 9 9 9 9 9 9 9 9 9 9 9 8 8 8 8 8 8 8 8 8 8 8 8 7 8 8 8 8 8 8 7 7 7 7 7 7
9 9 9 9 9 9 9 9 9 8 8 8 8 8 8 8 8 8 8 8 8 8 7 7 7 7 7 7 7 7 7 7 7 7 7 7 7 7 7 7 7 7 7
8 8 8 8 8 8 8 8 8 8 8 8 7 7 7 8 7 8 7 7 7 7 7 7 7 7 7 7 7 7 7 7 7 7 6 7 7 6 6 6 6 6 7
8 8 8 8 8 7 7 7 7 7 7 7 7 6 6 7 7 7 7 7 7 7 7 7 6 6 6 6 6 6 6 6 6 6 6 6 6 6 6 6 6 6 6
7 7 7 7 7 7 7 7 7 7 7 6 6 6 6 6 6 6 6 7 6 6 6 6 6 6 6 6 6 6 6 6 6 5 5 5 5 5 5 5 5 6 6
7 7 7 7 7 7 6 6 6 6 6 6 6 6 6 6 5 5 6 6 6 6 6 6 5 6 6 5 5 5 5 5 5 5 5 5 5 5 5 5 5 5 5
6 6 6 6 6 6 6 6 6 6 5 5 5 5 5 5 5 5 5 5 5 5 5 5 5 5 5 5 5 5 5 5 5 5 5 5 4 4 5 5 5 5 5
5 6 6 5 5 5 5 5 5 5 5 5 5 5 5 5 5 5 4 4 4 5 5 5 5 5 5 5 5 4 4 4 4 4 4 4 4 4 4 4 4 4 5
5 5 5 5 5 5 5 5 5 5 5 5 5 5 5 5 5 5 4 4 4 4 4 4 4 4 4 4 4 4 4 4 4 4 4 4 4 4 4 4 4 4 4
4 4 4 4 4 4 4 4 4 4 5 4 4 4 4 4 4 4 4 4 3 3 3 4 4 4 4 3 3 3 3 3 3 3 3 3 3 3 3 3 4 4 4
4 4 3 4 4 4 4 4 4 4 4 4 4 4 4 4 4 4 4 3 3 3 3 3 3 3 3 3 3 3 3 3 3 3 3 3 3 3 3 3 3 3 3
3 3 3 3 3 3 3 3 3 3 3 3 3 3 3 3 3 3 3 3 3 2 2 2 2 2 2 2 2 2 2 2 2 3 3 3 3 3 3 3 3 3 3
2 2 2 2 2 2 3 3 3 3 3 3 3 2 3 2 2 2 2 2 2 2 2 2 2 2 2 1 2 2 2 2 2 2 2 2 2 2 3 2 2 3 2
2 2 2 2 2 2 2 2 2 2 2 2 2 2 2 2 2 2 2 2 2 2 1 1 1 1 1 1 1 1 2 2 1 2 2 2 2 2 2 2 2 2 2
1 1 2 2 2 2 2 2 2 2 2 2 2 2 2 2 2 1 1 1 1 1 1 1 1 1 1 1 1 1 1 1 1 1 1 1 2 2 2 2 2 2 1
1 1 1 1 1 1 1 1 1 1 1 1 1 1 1 1 1 1 1 1 1 1 1 0 0 0 0 0 0 0 1 1 1 1 1 1 1 1 1 2 1 1 1
1 1 1 1 1 1 1 1 1 1 1 1 1 1 1 1 1 0 1 1 0 0 0 -0 -0 -0 -0 -0 -0 -0 -0 -0 0 0 1 1 1 1 1 1 1 1 1
0 0 0 0 0 0 0 0 0 0 0 -0 0 0 0 0 0 0 0 0 0 -0 -0 -0 -0 -0 -0 -0 -0 -1 -1 -1 -1 -0 -0 -0 -0 0 0 0 0 0 1
0 -0 -0 -0 -0 0 0 -0 -0 -0 -0 -0 -0 -0 -0 -0 -1 -1 -0 -0 -0 -1 -1 -1 -1 -1 -1 -1 -1 -1 -1 -1 -1 -1 -1 -1 -0 -0 -0 -0 -0 0 0
-0 -0 -0 -0 -0 -0 -0 -1 -1 -1 -1 -1 -1 -1 -1 -1 -1 -1 -1 -1 -1 -1 -1 -1 -1 -1 -1 -1 -1 -1 -1 -1 -1 -1 -1 -1 -1 -1 -1 -0 -0 -0 -0
-1 -1 -1 -1 -1 -1 -1 -1 -1 -1 -1 -1 -1 -1 -1 -1 -1 -1 -1 -1 -1 -1 -1 -1 -1 -1 -1 -1 -1 -2 -2 -2 -2 -2 -2 -2 -2 -2 -1 -1 -1 -1 -1
-1 -1 -1 -1 -1 -1 -1 -1 -1 -1 -2 -2 -2 -2 -2 -2 -2 -2 -2 -1 -1 -1 -1 -1 -1 -1 -2 -2 -2 -2 -2 -2 -2 -2 -2 -2 -2 -2 -2 -2 -1 -1 -1
Wind_Speed
2 2 1 2 2 1 2 2 3 3 4 4 4 4 5 5 5 5 4 5 7 7 7 8 7 7 8 7 8 7 7 8 7 8 9 9 9 9 9 9 9 9 9
2 2 2 2 2 2 2 3 4 4 4 4 4 5 5 5 6 6 5 5 6 7 8 8 7 7 8 8 8 8 8 8 9 9 8 9 9 9 9 9 9 9 9
3 3 2 2 2 3 3 4 4 4 4 4 5 5 5 5 6 6 6 5 6 6 7 7 7 7 8 8 8 8 8 8 9 9 9 9 9 10 10 10 10 10 9
4 3 3 3 3 3 3 3 4 4 4 4 4 4 4 4 6 6 6 6 6 5 6 6 6 6 7 8 8 8 8 9 9 10 10 10 11 11 11 11 11 11 10
4 4 3 3 3 3 3 3 3 4 4 4 4 4 4 5 6 6 6 6 6 5 5 5 6 6 7 8 8 9 9 10 10 10 11 11 11 11 12 12 12 12 12
5 4 4 3 3 3 3 3 4 4 4 3 3 3 4 5 5 5 5 5 5 6 6 6 6 6 7 8 9 10 10 10 11 11 12 12 12 12 13 14 13 13 13
4 5 4 4 3 4 4 4 3 3 3 2 2 3 3 4 5 4 5 5 5 5 6 6 6 6 6 8 10 11 11 11 12 12 12 12 12 13 13 14 14 13 13
4 5 5 4 4 4 5 4 3 3 2 2 2 2 2 3 3 4 4 5 5 4 5 6 6 6 6 6 7 10 11 12 12 13 12 13 13 13 14 14 14 14 13
5 4 5 5 5 5 5 5 5 5 4 3 3 2 2 4 3 4 5 5 5 5 5 6 7 8 8 7 7 8 10 12 12 13 13 13 14 14 14 13 14 14 14
5 5 5 5 5 5 5 5 5 5 5 4 4 4 4 3 3 3 4 5 6 7 7 6 7 8 8 7 8 9 9 11 13 14 14 14 14 13 13 13 14 14 14
5 5 5 5 5 5 6 6 6 6 5 5 4 4 4 4 5 4 5 6 6 6 6 7 7 7 7 8 7 8 9 12 13 14 14 14 13 13 14 14 15 14 15
4 5 5 5 5 5 6 7 7 7 7 7 6 5 4 4 4 4 5 6 7 6 6 6 6 6 6 6 7 9 10 11 12 12 13 13 13 14 14 15 15 14 15
4 5 5 5 5 6 6 7 7 7 7 7 7 6 6 6 5 5 5 5 6 6 6 6 6 6 6 6 6 8 10 10 11 12 12 13 13 13 14 14 15 15 15
5 6 6 6 7 7 7 6 6 7 7 7 7 7 6 6 5 5 5 5 5 5 6 6 5 6 6 6 7 8 9 10 11 12 12 12 12 13 13 13 14 14 15
6 7 6 6 7 7 7 7 6 7 7 7 7 7 6 5 4 4 4 4 5 6 7 5 4 5 5 6 7 7 8 10 12 12 11 11 11 13 13 13 14 14 14
7 7 6 7 7 7 7 7 6 6 6 6 5 6 5 4 4 4 4 4 4 5 6 5 4 5 5 5 7 7 9 10 10 10 10 11 11 12 12 13 13 13 13
7 7 7 7 7 7 7 6 6 6 6 6 5 6 5 5 4 4 4 3 4 4 6 5 5 5 6 6 5 6 7 7 6 8 10 10 11 11 12 12 12 12 12
7 7 6 7 6 6 6 6 6 6 6 6 6 5 5 4 5 4 4 4 4 4 5 6 5 4 5 6 6 6 5 6 6 7 9 9 10 10 11 11 11 12 11
7 7 6 6 6 6 6 6 6 5 6 6 5 5 5 5 5 4 4 4 3 4 4 4 5 4 4 4 5 5 6 5 5 5 6 7 8 9 10 9 9 10 9
6 6 5 5 6 5 5 5 5 5 5 5 5 5 5 5 5 4 4 3 3 3 3 4 4 3 4 4 4 4 4 4 4 4 4 5 6 8 8 7 7 7 7
5 5 5 5 5 5 5 5 4 4 4 4 4 4 4 5 5 4 3 3 3 3 3 3 3 3 3 3 3 4 4 4 4 3 3 4 4 4 5 5 6 5 5
4 4 4 4 5 4 5 5 4 3 3 3 3 3 3 3 3 4 4 4 4 4 4 4 4 4 4 4 3 3 3 3 4 3 3 4 4 4 4 3 5 5 4
4 4 3 3 4 4 4 4 3 2 2 3 3 3 2 2 2 2 3 3 4 5 5 4 4 4 4 4 3 4 4 4 4 4 4 4 3 4 3 4 6 6 5
3 3 3 2 3 3 3 2 1 1 2 2 3 3 2 2 2 2 2 2 3 3 4 3 3 3 3 3 3 3 3 3 4 3 2 2 3 3 4 4 5 5 5
2 2 2 2 2 2 2 1 1 1 1 2 2 2 2 2 2 2 2 2 2 2 2 1 2 2 3 3 2 1 1 1 2 3 2 1 2 3 3 3 4 5 5
2 1 2 2 1 2 1 0 0 0 0 1 2 1 2 2 2 2 2 2 1 2 2 2 2 2 1 1 1 1 1 1 2 2 2 1 1 2 2 2 3 4 5
Wind_Direction
254 244 236 242 244 253 239 249 241 234 234 234 236 240 244 250 253 250 244 240 251 255 257 259 257 259 257 257 258 261 262 261 265 264 260 258 261 263 268 273 271 271 274
252 253 240 244 249 248 248 252 255 240 236 240 241 247 251 253 251 249 249 237 240 253 257 257 255 260 260 259 260 262 263 267 268 268 270 265 261 264 266 270 270 268 271
254 254 247 243 254 255 254 250 250 244 236 235 240 244 251 255 256 252 249 246 240 241 248 254 255 257 258 257 258 261 267 271 270 270 271 271 269 267 267 267 269 264 268
250 249 245 249 255 250 247 245 243 245 239 237 242 247 250 252 253 254 249 246 245 243 240 245 254 255 259 260 259 261 268 272 274 270 271 273 272 270 271 266 269 264 264
247 247 245 251 256 252 247 241 245 246 249 246 247 253 256 255 255 252 250 248 245 244 247 237 246 256 261 266 264 265 265 268 272 274 273 272 274 274 269 270 269 267 261
249 245 243 246 250 248 246 243 249 249 252 257 258 261 261 257 251 247 250 249 243 241 245 246 246 249 257 265 270 269 268 269 271 273 272 270 271 274 274 268 269 271 260
258 241 243 241 239 243 247 244 243 245 251 263 278 288 278 260 249 248 251 252 246 247 246 246 249 253 255 259 265 268 269 270 273 273 274 270 271 271 275 275 267 274 267
263 251 239 238 238 243 248 244 239 237 260 243 269 292 271 265 248 259 256 258 257 252 255 255 250 251 258 263 265 266 266 270 273 273 275 273 272 273 275 274 277 271 275
253 259 254 242 240 238 240 242 232 233 247 246 240 239 248 249 285 248 253 252 256 258 260 262 257 252 253 259 266 264 266 270 274 276 276 273 273 271 276 274 281 275 275
256 255 262 251 241 240 242 242 238 239 237 244 246 247 259 268 251 257 258 256 262 262 263 263 261 258 256 258 261 267 267 270 274 277 276 274 274 273 275 277 278 281 278
257 255 257 259 247 243 244 243 243 241 235 239 245 254 258 261 257 257 271 272 268 263 266 265 262 259 258 256 260 265 270 272 273 275 277 276 276 277 278 277 277 281 282
266 258 255 257 257 247 245 245 241 242 241 241 242 242 250 249 249 255 268 278 277 274 271 268 263 261 259 259 264 270 269 273 274 277 279 278 277 279 279 278 277 282 283
266 263 256 256 261 256 250 249 246 245 242 244 242 245 247 252 258 256 260 278 284 287 275 267 262 261 261 264 266 268 269 269 270 273 277 274 276 279 280 279 279 281 284
260 261 258 258 261 262 253 247 249 248 247 246 249 248 250 251 252 251 253 263 279 282 273 270 272 262 265 266 268 270 269 266 271 274 274 275 276 277 279 278 281 281 285
258 259 258 256 257 259 256 249 246 247 248 247 247 247 248 253 252 252 251 249 253 268 274 273 276 271 273 270 273 271 272 269 271 269 270 273 277 277 277 277 281 281 283
255 256 257 257 257 259 258 249 251 247 245 249 249 248 251 255 254 253 247 254 256 259 266 270 277 285 280 279 281 278 274 277 264 264 269 274 277 275 275 275 280 281 281
252 251 252 255 256 261 258 248 246 245 245 248 249 245 248 254 253 251 248 246 250 257 266 282 286 287 287 286 285 285 287 282 270 268 274 277 278 279 278 275 279 279 281
253 250 248 251 253 257 254 247 246 246 246 246 248 245 250 254 256 254 247 246 249 254 258 272 283 288 290 290 294 294 292 284 280 279 281 283 285 289 286 276 276 279 280
254 250 247 251 252 253 250 249 247 249 248 247 245 247 252 251 256 261 260 249 250 254 258 262 279 295 297 294 295 295 296 294 288 287 286 290 294 296 295 284 276 277 278
253 253 252 254 256 255 248 246 247 249 248 249 251 251 252 252 249 256 255 249 247 251 254 259 271 287 296 300 296 298 303 310 309 307 302 303 301 300 300 304 294 283 280
257 257 257 262 264 253 243 243 245 240 239 253 260 257 257 259 260 264 257 243 234 236 242 250 264 282 290 302 297 295 299 313 311 315 321 317 309 302 300 309 312 299 283
262 258 256 261 262 252 247 249 253 229 234 244 256 264 262 261 262 272 265 257 245 234 237 247 261 265 280 287 294 291 297 307 306 324 321 309 308 312 320 326 332 333 328
269 265 267 264 262 253 240 240 255 238 240 249 253 262 269 271 272 262 264 258 260 262 261 256 258 266 274 279 279 282 287 299 302 313 320 312 322 320 330 337 339 337 338
268 271 272 272 270 256 236 224 217 239 258 268 269 262 256 266 269 267 265 269 279 281 273 268 274 277 283 280 274 276 283 305 310 317 326 315 326 328 336 339 352 352 355
281 279 285 274 268 266 239 216 195 239 252 279 277 264 254 261 266 268 268 273 289 308 321 303 308 316 319 307 301 294 285 305 315 325 340 322 339 343 333 335 4 14 10
289 294 292 292 281 280 283 329 29 202 241 297 293 269 254 262 274 270 264 256 270 309 345 358 4 16 0 344 315 259 260 274 316 327 347 343 332 346 346 358 4 6 7
Height
1505 1505 1505 1505 1505 1506 1506 1506 1507 1507 1507 1507 1507 1507 1507 1507 1507 1506 1506 1505 1506 1506 1506 1506 1505 1505 1505 1505 1505 1505 1504 1504 1503 1503 1503 1503 1502 1502 1501 1501 1500 1500 1500
1502 1502 1502 1502 1503 1503 1503 1504 1503 1504 1504 1504 1504 1504 1504 1504 1504 1503 1503 1502 1502 1502 1502 1502 1502 1502 1502 1501 1501 1501 1501 1500 1500 1499 1499 1498 1498 1498 1497 1497 1496 1496 1496
1499 1499 1499 1499 1500 1500 1500 1501 1500 1500 1500 1500 1501 1501 1501 1501 1500 1500 1500 1499 1499 1499 1498 1499 1498 1498 1498 1498 1497 1497 1497 1496 1496 1495 1495 1494 1494 1493 1493 1493 1492 1492 1492
1496 1496 1496 1496 1497 1497 1497 1497 1497 1497 1497 1497 1497 1497 1497 1497 1497 1497 1497 1496 1496 1495 1495 1495 1495 1494 1494 1494 1493 1493 1492 1492 1492 1491 1490 1490 1490 1489 1489 1488 1488 1488 1487
1493 1493 1493 1494 1494 1494 1494 1494 1494 1494 1493 1493 1493 1493 1493 1493 1493 1493 1493 1493 1492 1491 1491 1491 1491 1490 1490 1490 1489 1489 1488 1488 1487 1486 1486 1486 1485 1485 1485 1484 1483 1483 1483
1489 1489 1490 1490 1490 1490 1490 1490 1490 1490 1490 1490 1489 1489 1489 1489 1489 1489 1489 1489 1488 1488 1488 1487 1487 1486 1486 1485 1485 1485 1484 1483 1483 1482 1481 1481 1480 1480 1480 1480 1479 1478 1478
1486 1486 1486 1486 1486 1486 1486 1486 1486 1486 1486 1486 1486 1485 1485 1486 1485 1485 1485 1485 1485 1484 1484 1483 1483 1482 1481 1481 1480 1480 1479 1478 1478 1477 1476 1476 1475 1475 1475 1475 1474 1473 1473
1482 1482 1482 1482 1482 1482 1482 1482 1482 1482 1483 1483 1484 1483 1482 1483 1481 1481 1481 1481 1480 1480 1479 1479 1478 1478 1477 1476 1475 1474 1474 1473 1473 1472 1471 1471 1470 1470 1470 1470 1469 1469 1468
1478 1478 1478 1478 1478 1478 1478 1478 1479 1479 1479 1480 1480 1481 1480 1478 1477 1476 1476 1476 1476 1475 1475 1474 1474 1473 1472 1471 1470 1469 1469 1468 1468 1467 1466 1466 1465 1465 1464 1464 1464 1464 1463
1473 1473 1473 1473 1473 1473 1474 1474 1474 1475 1475 1475 1475 1476 1476 1475 1474 1471 1471 1471 1471 1470 1470 1469 1469 1468 1467 1466 1465 1464 1463 1463 1462 1461 1461 1461 1460 1459 1459 1458 1459 1458 1457
1469 1469 1469 1468 1468 1469 1469 1470 1470 1470 1470 1470 1470 1470 1471 1470 1470 1468 1466 1465 1465 1465 1465 1464 1463 1463 1462 1461 1460 1459 1458 1457 1457 1456 1455 1455 1454 1453 1453 1453 1453 1452 1452
1464 1464 1464 1464 1464 1464 1464 1465 1465 1465 1465 1465 1465 1465 1465 1465 1464 1464 1462 1461 1460 1459 1459 1458 1458 1457 1456 1455 1454 1453 1453 1452 1451 1450 1449 1448 1448 1447 1447 1447 1447 1446 1446
1458 1458 1459 1459 1459 1459 1459 1460 1460 1461 1461 1460 1460 1460 1460 1460 1460 1459 1458 1457 1455 1454 1453 1453 1453 1452 1451 1450 1448 1448 1447 1446 1445 1444 1443 1442 1442 1441 1441 1440 1440 1440 1440
1454 1454 1454 1454 1454 1454 1455 1455 1455 1455 1455 1455 1455 1455 1455 1455 1454 1454 1454 1453 1451 1449 1448 1448 1447 1447 1446 1444 1443 1442 1441 1440 1439 1438 1437 1436 1436 1435 1434 1434 1434 1434 1433
1450 1450 1449 1449 1449 1449 1449 1450 1449 1450 1450 1450 1450 1450 1450 1449 1449 1449 1448 1448 1448 1445 1443 1442 1443 1442 1441 1439 1438 1437 1436 1434 1433 1433 1432 1431 1430 1429 1429 1428 1428 1427 1427
1445 1445 1445 1445 1445 1444 1444 1444 1444 1444 1445 1444 1445 1445 1445 1444 1444 1443 1443 1442 1442 1441 1439 1438 1437 1437 1436 1434 1433 1432 1431 1430 1428 1427 1426 1426 1425 1424 1423 1422 1422 1422 1422
1440 1440 1440 1440 1440 1439 1439 1439 1439 1439 1440 1440 1440 1440 1440 1440 1439 1439 1438 1437 1437 1436 1435 1433 1433 1433 1432 1430 1429 1427 1426 1425 1424 1422 1421 1420 1419 1418 1417 1417 1416 1416 1416
1436 1435 1436 1435 1435 1435 1434 1434 1434 1435 1435 1435 1435 1435 1435 1435 1434 1434 1433 1432 1432 1432 1431 1429 1428 1428 1427 1426 1425 1423 1422 1420 1419 1418 1417 1415 1414 1413 1412 1411 1411 1410 1410
1431 1431 1431 1431 1431 1430 1430 1430 1430 1430 1431 1431 1431 1431 1431 1430 1430 1430 1429 1428 1428 1427 1427 1426 1424 1424 1423 1422 1421 1419 1418 1416 1415 1414 1412 1411 1410 1409 1407 1406 1405 1405 1404
1427 1427 1426 1426 1426 1426 1426 1426 1426 1426 1427 1427 1427 1427 1426 1426 1426 1425 1425 1424 1424 1424 1423 1423 1422 1420 1420 1419 1418 1416 1414 1413 1412 1411 1409 1408 1406 1405 1403 1401 1401 1400 1400
1423 1423 1423 1422 1422 1422 1422 1422 1422 1422 1423 1423 1423 1422 1422 1422 1422 1422 1421 1421 1421 1420 1420 1419 1418 1417 1416 1416 1415 1414 1412 1410 1409 1408 1406 1405 1403 1402 1400 1398 1397 1396 1396
1420 1420 1419 1419 1419 1418 1419 1419 1419 1419 1419 1419 1419 1419 1418 1419 1418 1418 1418 1418 1418 1417 1416 1416 1415 1414 1414 1413 1413 1412 1410 1409 1407 1407 1404 1403 1401 1399 1397 1396 1395 1394 1393
1417 1416 1416 1415 1415 1415 1416 1416 1416 1416 1416 1416 1416 1415 1415 1415 1415 1415 1414 1415 1415 1414 1414 1414 1412 1411 1411 1411 1410 1409 1408 1407 1406 1405 1403 1400 1400 1398 1397 1395 1394 1393 1392
1414 1414 1413 1413 1412 1413 1413 1413 1413 1413 1413 1413 1413 1413 1413 1412 1412 1412 1412 1412 1411 1411 1410 1410 1410 1410 1409 1409 1409 1408 1407 1405 1404 1403 1402 1400 1398 1397 1396 1394 1393 1392 1391
1412 1411 1411 1411 1411 1411 1411 1411 1411 1411 1411 1411 1411 1411 1411 1411 1410 1410 1410 1409 1408 1408 1408 1408 1408 1408 1407 1406 1406 1406 1405 1404 1402 1402 1401 1399 1397 1396 1395 1394 1394 1392 1390
1410 1409 1409 1409 1409 1409 1409 1409 1409 1409 1408 1409 1409 1409 1409 1409 1409 1408 1408 1407 1406 1406 1406 1406 1406 1405 1405 1405 1404 1404 1403 1403 1402 1401 1400 1399 1398 1396 1394 1394 1393 1392 1390